HG8LXL-2 Weather Reports


Display with metric or nautical units.
time (UTC)temp
F
wind
direction
speed
MPH
gust
MPH
rain 1hr
in
rain 24hr
in
rain mn
in
humidity
%
barometer
mb
20260901122551 92 0.0 0.0 0.00 0.00 0.00 17 1014.7
20260901122051 92 0.0 0.0 0.00 0.00 0.00 16 1014.8
20260901121551 92 0.0 0.0 0.00 0.00 0.00 16 1014.8
20260901121051 92 0.0 0.0 0.00 0.00 0.00 17 1014.9
20260901120554 92 0.0 0.0 0.00 0.00 0.00 16 1015.0
20260901120051 92 0.0 0.0 0.00 0.00 0.00 16 1014.8
20260901115551 92 0.0 0.0 0.00 0.00 0.00 17 1015.0
20260901115051 91 0.0 0.0 0.00 0.00 0.00 18 1015.1
20260901114551 91 0.0 0.0 0.00 0.00 0.00 18 1015.1
20260901114051 92 0.0 0.0 0.00 0.00 0.00 18 1015.0
20260901113554 91 0.0 0.0 0.00 0.00 0.00 18 1015.1
20260901113051 92 0.0 0.0 0.00 0.00 0.00 19 1015.1
20260901112551 91 0.0 0.0 0.00 0.00 0.00 20 1015.2
20260901112052 91 0.0 0.0 0.00 0.00 0.00 20 1015.2
20260901111551 91 0.0 0.0 0.00 0.00 0.00 23 1015.2
20260901111051 91 0.0 0.0 0.00 0.00 0.00 24 1015.1
20260901110551 90 0.0 0.0 0.00 0.00 0.00 22 1015.1
20260901110053 90 0.0 0.0 0.00 0.00 0.00 25 1015.2
20260901105551 90 0.0 0.0 0.00 0.00 0.00 24 1015.2
20260901105051 90 0.0 0.0 0.00 0.00 0.00 24 1015.2
20260901104559 89 0.0 0.0 0.00 0.00 0.00 25 1015.3
20260901104051 89 0.0 0.0 0.00 0.00 0.00 25 1015.2
20260901103551 89 0.0 0.0 0.00 0.00 0.00 25 1015.3
20260901103051 89 0.0 0.0 0.00 0.00 0.00 25 1015.4
20260901102551 88 0.0 0.0 0.00 0.00 0.00 25 1015.4
20260901102051 89 0.0 0.0 0.00 0.00 0.00 26 1015.3
20260901101551 89 0.0 0.0 0.00 0.00 0.00 26 1015.3
20260901101051 88 0.0 0.0 0.00 0.00 0.00 27 1015.3
20260901100552 87 0.0 0.0 0.00 0.00 0.00 27 1015.4
20260901100051 87 0.0 0.0 0.00 0.00 0.00 28 1015.5
20260901095551 87 0.0 0.0 0.00 0.00 0.00 28 1015.5
20260901095051 87 0.0 0.0 0.00 0.00 0.00 30 1015.5
20260901094559 87 0.0 0.0 0.00 0.00 0.00 29 1015.5
20260901094051 87 0.0 0.0 0.00 0.00 0.00 30 1015.5
20260901093551 86 0.0 0.0 0.00 0.00 0.00 31 1015.5
20260901093051 85 0.0 0.0 0.00 0.00 0.00 34 1015.6
20260901092556 85 0.0 0.0 0.00 0.00 0.00 33 1015.6
20260901092051 85 0.0 0.0 0.00 0.00 0.00 33 1015.6
20260901091559 84 0.0 0.0 0.00 0.00 0.00 33 1015.6
20260901091051 85 0.0 0.0 0.00 0.00 0.00 32 1015.5
20260901090552 85 0.0 0.0 0.00 0.00 0.00 31 1015.5
20260901090051 87 0.0 0.0 0.00 0.00 0.00 28 1015.5
20260901085551 88 0.0 0.0 0.00 0.00 0.00 28 1015.4
20260901085053 87 0.0 0.0 0.00 0.00 0.00 32 1015.6
20260901084551 85 0.0 0.0 0.00 0.00 0.00 30 1015.5
20260901084051 85 0.0 0.0 0.00 0.00 0.00 30 1015.5
20260901083551 86 0.0 0.0 0.00 0.00 0.00 31 1015.5
20260901083051 85 0.0 0.0 0.00 0.00 0.00 32 1015.4
20260901082551 85 0.0 0.0 0.00 0.00 0.00 32 1015.4
20260901082051 84 0.0 0.0 0.00 0.00 0.00 33 1015.3
20260901081551 85 0.0 0.0 0.00 0.00 0.00 34 1015.4
20260901081058 85 0.0 0.0 0.00 0.00 0.00 33 1015.3
20260901080551 86 0.0 0.0 0.00 0.00 0.00 32 1015.3
20260901080051 86 0.0 0.0 0.00 0.00 0.00 34 1015.3
20260901075609 85 0.0 0.0 0.00 0.00 0.00 34 1015.2
20260901075051 84 0.0 0.0 0.00 0.00 0.00 38 1015.3
20260901074551 84 0.0 0.0 0.00 0.00 0.00 37 1015.2
20260901074051 84 0.0 0.0 0.00 0.00 0.00 39 1015.2
20260901073604 83 0.0 0.0 0.00 0.00 0.00 40 1015.2
20260901073051 83 0.0 0.0 0.00 0.00 0.00 40 1015.2
20260901072551 84 0.0 0.0 0.00 0.00 0.00 41 1015.2
20260901072130 83 0.0 0.0 0.00 0.00 0.00 41 1015.1
20260901071551 83 0.0 0.0 0.00 0.00 0.00 41 1015.0
20260901071051 82 0.0 0.0 0.00 0.00 0.00 43 1015.1
20260901070551 82 0.0 0.0 0.00 0.00 0.00 43 1014.9
20260901070051 82 0.0 0.0 0.00 0.00 0.00 44 1014.8
20260901065551 81 0.0 0.0 0.00 0.00 0.00 45 1014.7
20260901065051 82 0.0 0.0 0.00 0.00 0.00 46 1014.7
20260901064556 81 0.0 0.0 0.00 0.00 0.00 45 1014.6
20260901064051 81 0.0 0.0 0.00 0.00 0.00 46 1014.6
20260901063551 81 0.0 0.0 0.00 0.00 0.00 46 1014.5
20260901063051 80 0.0 0.0 0.00 0.00 0.00 47 1014.5
20260901062551 79 0.0 0.0 0.00 0.00 0.00 49 1014.4
20260901062105 79 0.0 0.0 0.00 0.00 0.00 51 1014.4
20260901061551 78 0.0 0.0 0.00 0.00 0.00 52 1014.3
20260901061051 78 0.0 0.0 0.00 0.00 0.00 52 1014.4
20260901060551 78 0.0 0.0 0.00 0.00 0.00 52 1014.2
20260901060054 77 0.0 0.0 0.00 0.00 0.00 54 1014.2
20260901055551 77 0.0 0.0 0.00 0.00 0.00 55 1014.2
20260901055051 76 0.0 0.0 0.00 0.00 0.00 57 1014.1
20260901054552 75 0.0 0.0 0.00 0.00 0.00 57 1014.1
20260901054051 75 0.0 0.0 0.00 0.00 0.00 58 1014.1
20260901053551 75 0.0 0.0 0.00 0.00 0.00 59 1014.0
20260901053052 73 0.0 0.0 0.00 0.00 0.00 62 1014.1
20260901052605 73 0.0 0.0 0.00 0.00 0.00 63 1014.0
20260901052051 73 0.0 0.0 0.00 0.00 0.00 64 1014.0
20260901051550 73 0.0 0.0 0.00 0.00 0.00 67 1014.0
20260901051054 73 0.0 0.0 0.00 0.00 0.00 68 1014.0
20260901050551 73 0.0 0.0 0.00 0.00 0.00 68 1013.8
20260901050050 73 0.0 0.0 0.00 0.00 0.00 67 1013.7
20260901045551 74 0.0 0.0 0.00 0.00 0.00 65 1013.5
20260901045059 74 0.0 0.0 0.00 0.00 0.00 65 1013.5
20260901044551 75 0.0 0.0 0.00 0.00 0.00 61 1013.5
20260901044055 74 0.0 0.0 0.00 0.00 0.00 61 1013.4
20260901043551 75 0.0 0.0 0.00 0.00 0.00 62 1013.4
20260901043050 74 0.0 0.0 0.00 0.00 0.00 63 1013.4
20260901042555 74 0.0 0.0 0.00 0.00 0.00 62 1013.3
20260901042051 74 0.0 0.0 0.00 0.00 0.00 63 1013.1
20260901041559 75 0.0 0.0 0.00 0.00 0.00 61 1013.1
20260901041050 74 0.0 0.0 0.00 0.00 0.00 62 1012.9
20260901040551 73 0.0 0.0 0.00 0.00 0.00 64 1013.0
20260901040051 75 0.0 0.0 0.00 0.00 0.00 61 1012.9
20260901035550 74 0.0 0.0 0.00 0.00 0.00 64 1012.9
20260901035051 74 0.0 0.0 0.00 0.00 0.00 65 1012.9
20260901034553 72 0.0 0.0 0.00 0.00 0.00 67 1012.9
20260901034050 73 0.0 0.0 0.00 0.00 0.00 68 1012.9
20260901033550 73 0.0 0.0 0.00 0.00 0.00 68 1012.8
20260901033059 73 0.0 0.0 0.00 0.00 0.00 67 1012.8
20260901032551 73 0.0 0.0 0.00 0.00 0.00 69 1012.8
20260901032050 73 0.0 0.0 0.00 0.00 0.00 69 1012.8
20260901031552 72 0.0 0.0 0.00 0.00 0.00 69 1012.8
20260901031050 74 0.0 0.0 0.00 0.00 0.00 66 1012.7
20260901030550 74 0.0 0.0 0.00 0.00 0.00 67 1012.5
20260901030050 74 0.0 0.0 0.00 0.00 0.00 67 1012.6
20260901025550 74 0.0 0.0 0.00 0.00 0.00 64 1012.5
20260901025050 74 0.0 0.0 0.00 0.00 0.00 65 1012.6
20260901024552 73 0.0 0.0 0.00 0.00 0.00 69 1012.7
20260901024051 73 0.0 0.0 0.00 0.00 0.00 70 1012.7
20260901023551 73 0.0 0.0 0.00 0.00 0.00 67 1012.8
20260901023050 75 0.0 0.0 0.00 0.00 0.00 63 1012.8
20260901022550 75 0.0 0.0 0.00 0.00 0.00 64 1012.8
20260901022050 73 0.0 0.0 0.00 0.00 0.00 68 1013.0
20260901021550 73 0.0 0.0 0.00 0.00 0.00 66 1012.9
20260901021050 75 0.0 0.0 0.00 0.00 0.00 61 1012.8
20260901020552 73 0.0 0.0 0.00 0.00 0.00 66 1013.0
20260901020050 73 0.0 0.0 0.00 0.00 0.00 67 1013.0
20260901015553 73 0.0 0.0 0.00 0.00 0.00 66 1013.1
20260901015050 73 0.0 0.0 0.00 0.00 0.00 66 1013.1
20260901014551 74 0.0 0.0 0.00 0.00 0.00 65 1013.1
20260901014050 74 0.0 0.0 0.00 0.00 0.00 64 1012.9
20260901013550 75 0.0 0.0 0.00 0.00 0.00 63 1012.6
20260901013050 75 0.0 0.0 0.00 0.00 0.00 62 1012.4
20260901012550 75 0.0 0.0 0.00 0.00 0.00 61 1012.5
20260901012050 75 0.0 0.0 0.00 0.00 0.00 61 1012.7
20260901011550 75 0.0 0.0 0.00 0.00 0.00 62 1013.0
20260901011050 75 0.0 0.0 0.00 0.00 0.00 62 1013.1
20260901010550 75 0.0 0.0 0.00 0.00 0.00 62 1013.3
20260901010050 75 0.0 0.0 0.00 0.00 0.00 62 1013.4
20260901005550 75 0.0 0.0 0.00 0.00 0.00 64 1013.5
20260901005050 75 0.0 0.0 0.00 0.00 0.00 62 1013.8
20260901004556 76 0.0 0.0 0.00 0.00 0.00 64 1013.6
20260901004050 75 0.0 0.0 0.00 0.00 0.00 66 1013.4
20260901003550 75 0.0 0.0 0.00 0.00 0.00 69 1013.5
20260901003050 75 0.0 0.0 0.00 0.00 0.00 66 1013.3
20260901002550 75 0.0 0.0 0.00 0.00 0.00 67 1013.6
20260901002050 75 0.0 0.0 0.00 0.00 0.00 67 1013.8
20260901001550 75 0.0 0.0 0.00 0.00 0.00 66 1014.0
20260901001050 77 0.0 0.0 0.00 0.00 0.00 60 1014.0
20260901000551 77 0.0 0.0 0.00 0.00 0.00 60 1014.0
20260901000050 77 0.0 0.0 0.00 0.00 0.00 60 1014.3
20260831235556 78 0.0 0.0 0.00 0.00 0.00 56 1014.0
20260831235050 71 0.0 0.0 0.00 0.00 0.00 81 1014.4
20260831234553 73 0.0 0.0 0.00 0.00 0.00 62 1013.7